Location: Raleigh
(35.7720°N, 78.6390°W)
Time: 05:22:27
(UTC-04:00)

Amateur Radio Satellites - All Passes

Search period start: 23 October 2014 04:52
Search period end: 24 October 2014 04:52
Location: Raleigh, 35.7720°N, 78.6390°W

Satellite Date Start Highest point End Downlink Frequencies (MHz)
Time Altitude Azimuth
AO-Echo 23 Oct 04:59:08 05:00:55 12° 298° (WNW) 05:02:43 ?
JAS-1B 23 Oct 04:59:35 05:03:09 15° 297° (WNW) 05:07:00 435.800 - 435.900 CW/SSB
Uosat F 23 Oct 05:01:12 05:05:37 30° 97° (E) 05:10:00 435.120 FM
Uribyol 2 23 Oct 05:02:58 05:05:18 13° 298° (WNW) 05:07:38 436.500 FM
PCSat 23 Oct 05:04:34 05:09:54 61° 299° (WNW) 05:15:17 145.825 MHz
ITAMSAT 1 23 Oct 05:08:41 05:10:47 13° 298° (WNW) 05:12:53 435.822 SSB
Gurwin Techsat 1B 23 Oct 05:15:08 05:18:59 21° 294° (WNW) 05:22:49 435.225 FM
JAS-2 23 Oct 05:18:36 05:23:36 18° 90° (E) 05:28:32 435.800 - 435.900 CW/SSB, 435.910 FM
AO-7 23 Oct 05:26:57 05:35:15 67° 105° (ESE) 05:43:31 29.400 - 29.500 MHz
TMSAT-1 23 Oct 05:27:39 05:31:34 21° 294° (WNW) 05:35:27 436.925 FM
OPAL 23 Oct 05:37:31 05:42:41 90° 260° (W) 05:47:50 ?
RS-15 23 Oct 05:40:48 05:48:12 19° 28° (NNE) 05:55:44 29.354 - 29.394 USB, Beacon 29.352 USB
Hamsat 23 Oct 05:56:56 05:58:46 13° 92° (E) 06:00:36 145.90 MHz
Sapphire 23 Oct 06:28:07 06:31:07 15° 312° (NW) 06:34:09 437.095 MHz 1200 baud AX-25 AFSK
Uosat F 23 Oct 06:40:03 06:44:15 27° 292° (WNW) 06:48:27 435.120 FM
JAS-2 23 Oct 07:01:23 07:09:12 82° 285° (WNW) 07:17:00 435.800 - 435.900 CW/SSB, 435.910 FM
STRAND 1 23 Oct 07:18:51 07:23:58 85° 76° (ENE) 07:29:08 ?
AO-7 23 Oct 07:20:54 07:27:19 26° 302° (WNW) 07:33:46 29.400 - 29.500 MHz
Hamsat 23 Oct 07:30:55 07:34:53 43° 286° (WNW) 07:38:52 145.90 MHz
RS-15 23 Oct 07:52:20 08:03:26 62° 56° (NE) 08:14:59 29.354 - 29.394 USB, Beacon 29.352 USB
Saudisat 1A 23 Oct 08:26:07 08:30:30 89° 120° (ESE) 08:34:55 436.775 MHz
SO-67 23 Oct 08:29:32 08:32:57 63° 283° (WNW) 08:36:20 435.3500 MHz FM
PANSAT 23 Oct 08:36:54 08:39:35 18° 166° (SSE) 08:42:16 not established
JAS-2 23 Oct 08:48:47 08:53:04 16° 301° (WNW) 08:57:24 435.800 - 435.900 CW/SSB, 435.910 FM
HO-68 23 Oct 10:04:20 10:11:28 63° 103° (ESE) 10:18:33 435.675 MHz FM
RS-15 23 Oct 10:05:30 10:15:10 35° 254° (WSW) 10:25:14 29.354 - 29.394 USB, Beacon 29.352 USB
Saudisat 1A 23 Oct 10:09:50 10:10:41 11° 317° (NW) 10:11:32 436.775 MHz
PANSAT 23 Oct 10:15:58 10:19:14 27° 179° (S) 10:22:30 not established
MaSat-1 23 Oct 10:19:21 10:21:53 57° 65° (ENE) 10:24:14 437.345 MHz
ZACube-1 23 Oct 10:25:32 10:27:05 12° 92° (E) 10:28:38 437.345 MHz
UKube-1 23 Oct 10:32:02 10:36:11 42° 99° (E) 10:40:18 145.840 MHz, 145.915 MHz
FUNcube-1 23 Oct 11:08:38 11:12:38 40° 98° (E) 11:16:33 145.950 - 145.970 MHz USB
Oscar 11 23 Oct 11:15:06 11:19:21 62° 285° (WNW) 11:23:35 145.825 FM, Beacon 2401.500 USB
HO-68 23 Oct 11:53:12 11:58:34 23° 299° (WNW) 12:03:56 435.675 MHz FM
PANSAT 23 Oct 11:55:59 11:58:55 21° 191° (SSW) 12:01:51 not established
ZACube-1 23 Oct 11:59:40 12:03:45 46° 286° (WNW) 12:07:44 437.345 MHz
UKube-1 23 Oct 12:09:27 12:11:59 15° 294° (WNW) 12:14:31 145.840 MHz, 145.915 MHz
KITSAT 1 23 Oct 12:22:43 12:30:24 50° 110° (ESE) 12:38:06 435.175 FM
ISS 23 Oct 12:23:44 12:25:42 15° 128° (SE) 12:27:40 145.800 FM
Oscar 16 23 Oct 12:43:16 12:45:58 14° 64° (ENE) 12:48:40 437.025 USB, Beacon 2401.1428
FUNcube-1 23 Oct 12:46:19 12:48:38 15° 294° (WNW) 12:50:55 145.950 - 145.970 MHz USB
Sapphire 23 Oct 13:32:52 13:37:48 34° 56° (ENE) 13:42:41 437.095 MHz 1200 baud AX-25 AFSK
Oscar 19 23 Oct 13:34:25 13:39:18 45° 72° (ENE) 13:44:11 437.125 CW, 437.150 USB
SO-50 23 Oct 13:40:07 13:44:35 84° 119° (ESE) 13:49:11 436.795 FM
AO-27 23 Oct 13:48:51 13:53:04 25° 67° (ENE) 13:57:17 436.795 MHz FM
JAS-1B 23 Oct 13:50:14 13:56:11 53° 72° (ENE) 14:01:42 435.800 - 435.900 CW/SSB
PCSat 23 Oct 13:55:20 14:00:42 58° 61° (ENE) 14:06:00 145.825 MHz
ISS 23 Oct 13:58:54 14:02:06 44° 322° (NW) 14:05:19 145.800 FM
Oscar 10/S400 23 Oct 14:09:38 14:28:57 47° 155° (SSE) 14:52:10 145.825 - 145.975 CW/USB, Beacon 145.810 USB
KITSAT 1 23 Oct 14:18:44 14:25:58 35° 309° (NW) 14:33:15 435.175 FM
Oscar 16 23 Oct 14:19:39 14:24:45 62° 259° (WSW) 14:29:53 437.025 USB, Beacon 2401.1428
AO-Echo 23 Oct 14:27:41 14:32:30 76° 76° (ENE) 14:37:30 ?
AO-7 23 Oct 14:35:52 14:39:25 13° 51° (NE) 14:42:57 29.400 - 29.500 MHz
Uribyol 2 23 Oct 14:36:11 14:41:23 78° 75° (ENE) 14:46:38 436.500 FM
ITAMSAT 1 23 Oct 14:41:49 14:47:00 83° 76° (ENE) 14:52:15 435.822 SSB
Gurwin Techsat 1B 23 Oct 14:52:30 14:57:38 53° 73° (ENE) 15:02:48 435.225 FM
TMSAT-1 23 Oct 15:04:49 15:09:54 50° 72° (ENE) 15:15:02 436.925 FM
UOSAT-12 23 Oct 15:12:17 15:16:50 65° 117° (ESE) 15:21:30 437.025 FM, 437.400 FM
Oscar 19 23 Oct 15:15:18 15:18:49 18° 266° (W) 15:22:19 437.125 CW, 437.150 USB
Sapphire 23 Oct 15:16:27 15:21:04 29° 252° (WSW) 15:25:40 437.095 MHz 1200 baud AX-25 AFSK
SO-50 23 Oct 15:24:07 15:25:46 12° 317° (NW) 15:27:27 436.795 FM
AO-27 23 Oct 15:27:41 15:32:22 34° 262° (W) 15:37:06 436.795 MHz FM
PCSat 23 Oct 15:40:20 15:43:33 16° 256° (WSW) 15:46:47 145.825 MHz
JAS-1B 23 Oct 15:43:24 15:47:08 17° 265° (W) 15:50:42 435.800 - 435.900 CW/SSB
Uosat F 23 Oct 16:11:46 16:16:09 31° 69° (ENE) 16:20:33 435.120 FM
Uribyol 2 23 Oct 16:21:10 16:21:22 10° 270° (W) 16:21:34 436.500 FM
AO-7 23 Oct 16:22:31 16:30:42 70° 69° (ENE) 16:38:55 29.400 - 29.500 MHz
Gurwin Techsat 1B 23 Oct 16:34:38 16:37:52 16° 267° (W) 16:41:08 435.225 FM
TMSAT-1 23 Oct 16:46:41 16:50:04 17° 267° (W) 16:53:28 436.925 FM
UOSAT-12 23 Oct 16:54:43 16:57:26 15° 314° (NW) 17:00:10 437.025 FM, 437.400 FM
Saudisat 1A 23 Oct 16:55:45 16:59:41 31° 53° (NE) 17:03:37 436.775 MHz
JAS-2 23 Oct 17:11:23 17:16:25 31° 66° (ENE) 17:22:00 435.800 - 435.900 CW/SSB, 435.910 FM
Uosat F 23 Oct 17:50:46 17:54:53 26° 264° (W) 17:59:03 435.120 FM
OPAL 23 Oct 17:50:54 17:55:11 29° 99° (E) 17:59:27 ?
AO-7 23 Oct 18:17:59 18:24:00 22° 265° (W) 18:30:05 29.400 - 29.500 MHz
Hamsat 23 Oct 18:20:50 18:25:04 88° 78° (ENE) 18:29:17 145.90 MHz
Saudisat 1A 23 Oct 18:35:35 18:39:05 23° 249° (WSW) 18:42:33 436.775 MHz
ISS 23 Oct 18:54:59 18:55:47 11° 22° (NNE) 18:56:36 145.800 FM
JAS-2 23 Oct 18:56:10 19:01:20 35° 265° (W) 19:07:08 435.800 - 435.900 CW/SSB, 435.910 FM
SO-67 23 Oct 18:59:43 19:02:29 23° 72° (ENE) 19:05:16 435.3500 MHz FM
OPAL 23 Oct 19:29:49 19:33:57 27° 294° (WNW) 19:38:04 ?
STRAND 1 23 Oct 19:32:43 19:37:28 36° 98° (E) 19:42:10 ?
AO-40 23 Oct 20:14:43 23:15:54 27° 116° (ESE) 00:34:53 Beacon 2401.320
KITSAT 1 23 Oct 20:20:10 20:25:05 17° 39° (NE) 20:29:59 435.175 FM
ISS 23 Oct 20:29:47 20:33:05 57° 39° (NE) 20:36:22 145.800 FM
HO-68 23 Oct 20:30:08 20:36:26 35° 65° (ENE) 20:42:46 435.675 MHz FM
SO-67 23 Oct 20:33:24 20:35:25 15° 266° (W) 20:37:27 435.3500 MHz FM
STRAND 1 23 Oct 21:12:23 21:16:24 24° 293° (WNW) 21:20:24 ?
UKube-1 23 Oct 21:25:04 21:28:39 26° 69° (ENE) 21:32:15 145.840 MHz, 145.915 MHz
FUNcube-1 23 Oct 22:02:13 22:05:58 25° 70° (ENE) 22:09:41 145.950 - 145.970 MHz USB
Oscar 11 23 Oct 22:06:55 22:11:13 70° 76° (ENE) 22:15:32 145.825 FM, Beacon 2401.500 USB
ISS 23 Oct 22:08:15 22:09:23 11° 234° (SW) 22:10:31 145.800 FM
RS-15 23 Oct 22:12:19 22:22:50 52° 110° (ESE) 22:33:11 29.354 - 29.394 USB, Beacon 29.352 USB
KITSAT 1 23 Oct 22:13:53 22:21:58 72° 61° (ENE) 22:30:00 435.175 FM
SO-50 23 Oct 22:14:29 22:18:58 36° 54° (NE) 22:23:27 436.795 FM
HO-68 23 Oct 22:17:21 22:23:58 40° 261° (W) 22:30:38 435.675 MHz FM
ZACube-1 23 Oct 22:52:24 22:57:01 87° 258° (WSW) 23:01:35 437.345 MHz
UKube-1 23 Oct 23:01:16 23:04:45 23° 264° (W) 23:08:15 145.840 MHz, 145.915 MHz
FUNcube-1 23 Oct 23:38:19 23:42:12 27° 264° (W) 23:46:04 145.950 - 145.970 MHz USB
UOSAT-12 23 Oct 23:45:04 23:49:03 27° 51° (NE) 23:52:59 437.025 FM, 437.400 FM
MaSat-1 23 Oct 23:52:54 23:56:51 38° 109° (ESE) 00:00:32 437.345 MHz
SO-50 23 Oct 23:55:26 23:59:20 24° 249° (WSW) 00:03:14 436.795 FM
KITSAT 1 24 Oct 00:10:55 00:16:32 21° 257° (WSW) 00:22:09 435.175 FM
RS-15 24 Oct 00:25:04 00:35:18 43° 311° (NW) 00:45:33 29.354 - 29.394 USB, Beacon 29.352 USB
UOSAT-12 24 Oct 01:25:03 01:29:11 31° 248° (WSW) 01:33:14 437.025 FM, 437.400 FM
MaSat-1 24 Oct 01:30:00 01:32:34 16° 301° (WNW) 01:35:01 437.345 MHz
JAS-1B 24 Oct 01:36:35 01:41:21 19° 95° (E) 01:46:37 435.800 - 435.900 CW/SSB
Oscar 19 24 Oct 01:49:46 01:53:27 20° 94° (E) 01:57:08 437.125 CW, 437.150 USB
AO-27 24 Oct 02:07:19 02:08:17 11° 91° (E) 02:09:15 436.795 MHz FM
Oscar 16 24 Oct 02:34:16 02:39:20 59° 101° (E) 02:44:22 437.025 USB, Beacon 2401.1428
AO-Echo 24 Oct 02:37:56 02:42:42 33° 97° (E) 02:47:26 ?
RS-15 24 Oct 02:46:19 02:51:48 15° 343° (NNW) 02:57:21 29.354 - 29.394 USB, Beacon 29.352 USB
Uribyol 2 24 Oct 02:52:16 02:57:01 35° 98° (E) 03:01:43 436.500 FM
ITAMSAT 1 24 Oct 02:57:58 03:02:48 37° 98° (E) 03:07:36 435.822 SSB
Gurwin Techsat 1B 24 Oct 03:12:09 03:16:36 27° 96° (E) 03:21:01 435.225 FM
TMSAT-1 24 Oct 03:24:08 03:28:28 25° 95° (E) 03:32:47 436.925 FM
JAS-1B 24 Oct 03:25:24 03:32:06 70° 286° (WNW) 03:40:09 435.800 - 435.900 CW/SSB
Oscar 19 24 Oct 03:28:09 03:32:55 41° 289° (WNW) 03:37:40 437.125 CW, 437.150 USB
AO-27 24 Oct 03:43:03 03:48:17 76° 285° (WNW) 03:53:29 436.795 MHz FM
Sapphire 24 Oct 04:11:26 04:16:40 55° 112° (ESE) 04:21:58 437.095 MHz 1200 baud AX-25 AFSK
Oscar 16 24 Oct 04:15:21 04:18:09 15° 296° (WNW) 04:20:56 437.025 USB, Beacon 2401.1428
AO-Echo 24 Oct 04:16:51 04:21:17 28° 292° (WNW) 04:25:43 ?
Uosat F 24 Oct 04:24:27 04:26:09 12° 91° (E) 04:27:50 435.120 FM
AO-7 24 Oct 04:28:14 04:34:59 27° 96° (E) 04:41:41 29.400 - 29.500 MHz
Uribyol 2 24 Oct 04:32:06 04:36:16 25° 293° (WNW) 04:40:24 436.500 FM
PCSat 24 Oct 04:33:54 04:39:18 85° 296° (WNW) 04:44:45 145.825 MHz
ITAMSAT 1 24 Oct 04:37:58 04:42:02 23° 293° (WNW) 04:46:05 435.822 SSB
